KUIPER-00082

导读

KUIPER-00082是美国亚马逊柯伊伯(Project Kuiper)互联网星座计划中的一颗卫星,于2025年7月16日在美国佛罗里达州空军东部试验场发射,和同一批次共计24颗卫星共同入轨。该卫星运行在倾角约51.9°,平均高度约636公里的近地轨道,目前状态为在轨工作,是柯伊伯星座构建全球卫星互联网组网的组成单元。

Basic Information
目录编号:
64828
目录名称:
KUIPER-00082
国际标识:
2025-151N
轨道中心:
EARTH
卫星名称:
KUIPER-00082
卫星全名:
KUIPER-00082
卫星状态:
在轨 (已飞行426 天)
发射日期:
2025-07-16 UTC
国别 :
美国 (US)
星等 :
--
This satellite is enrolled in the Space Conjunction Data Service (SCDS) and the current flight risk assessment level is: No High Risk
Orbit Information
数据来源 国际轨道数据 AOE轨道数据
星历时间 2026-09-15T12:40:26+0800
17小时前
查看轨道信息
2026-09-13T00:00:00+0800
3天前
查看轨道信息
半长轴 7007.682km 7007.643km
偏心率 0.0000931 0.0001182
轨道倾角 51.900° 51.901°
近地点辐角 87.273° 45.199°
升交点赤经 170.133° 181.313°
平近点角 272.834° 157.847°
近地点 628.892km 628.677km
远地点 630.198km 630.335km
周期 97.302分钟 97.301分钟
每日圈数 14.799303 14.799426
Detailed Information
使用方式:
暂无
2D Orbit Map
3D Orbit Map
Orbit Altitude Analysis Chart
Orbit Inclination Analysis Chart
Orbit Comprehensive Analysis Chart
View Comprehensive Chart
Conjunction Data List
Event ID Objects TCA Miss Dist (km) Collision Risk Probability Collision Risk Index (CRI) Action
CDM_260917-125904-870206-482821
2026-09-17T
12:59:13+0000
2.585 km
极远距离
1.445899E-6 低风险 0.38
Miss Distance Evolution Trend with All Objects Subscribe to Flight Safety Assessment
Collision Probability Evolution Trend with All Objects Subscribe to Flight Safety Assessment